Weather History for Worland, WY

Change the Weather History Date:

Wednesday, February 13, 2013

  Actual Average Record
Temperature  
Mean Temperature 22 °F 23 °F  
Max Temperature 37 °F 36 °F 58 °F (1967)
Min Temperature 6 °F 9 °F -13 °F (2004)
Degree Days  
Heating Degree Days 43 42  
Month to date heating degree days 594 575  
Since 1 July heating degree days 4920 5423  
Cooling Degree Days 0 0  
Month to date cooling degree days 0 0  
Year to date cooling degree days 0 0  
Moisture  
Dew Point 16 °F    
Average Humidity 67    
Maximum Humidity 85    
Minimum Humidity 49    
Precipitation  
Precipitation 0.00 in 0.01 in 0.20 in (1967)
Month to date precipitation 0.06 0.08  
Year to date precipitation 0.19 0.31  
Sea Level Pressure  
Sea Level Pressure 30.11 in    
Wind  
Wind Speed 4 mph (South)    
Max Wind Speed 16 mph    
Max Gust Speed 18 mph    
Visibility 10 miles    
Events      
T = Trace of Precipitation, MM = Missing Value Source: NWS Daily Summary

Daily Weather History Graph

Daily Weather History Graph

Search for Another Location

Airport:

Trip Planner

Search our weather history database for the weather conditions in past years. The results will help you decide how hot, cold, wet, or windy it might be!

Date:

Astronomy

Feb. 13, 2013 Rise Set
Actual Time 7:13 AM MST 5:39 PM MST
Civil Twilight 6:43 AM MST 6:09 PM MST
Nautical Twilight 6:09 AM MST 6:42 PM MST
Astronomical Twilight 5:36 AM MST 7:16 PM MST
Moon 8:34 AM MST (2/13) 9:56 PM MST (2/13)
Length of Visible Light 11h 25m
Length of Day
10h 25m
Waxing Crescent, 14% of the Moon is Illuminated
Feb 13
Waxing Crescent
Feb 17
First Quarter
Feb 25
Full
Mar 4
Last Quarter
Mar 11
New

Hourly Weather History & Observations

Time (MST) Temp. Windchill Dew Point Humidity Pressure Visibility Wind Dir Wind Speed Gust Speed Precip Events Conditions
12:53 AM 16.0 °F - 8.1 °F 71% 30.14 in 10.0 mi Calm Calm - N/A   Clear
1:53 AM 18.0 °F 5.4 °F 9.0 °F 68% 30.09 in 10.0 mi South 11.5 mph - N/A   Clear
2:53 AM 12.0 °F 1.5 °F 7.0 °F 80% 30.12 in 10.0 mi SSW 6.9 mph - N/A   Clear
3:53 AM 12.9 °F -0.2 °F 8.1 °F 81% 30.10 in 10.0 mi South 10.4 mph - N/A   Clear
5:53 AM 9.0 °F - 5.0 °F 84% 30.14 in 10.0 mi Calm Calm - N/A   Clear
6:53 AM 10.9 °F 4.7 °F 6.1 °F 81% 30.14 in 10.0 mi SSW 3.5 mph - N/A   Clear
7:53 AM 12.0 °F 5.9 °F 7.0 °F 80% 30.13 in 10.0 mi Variable 3.5 mph - N/A   Clear
8:53 AM 12.9 °F - 7.0 °F 77% 30.12 in 10.0 mi Calm Calm - N/A   Clear
9:53 AM 19.0 °F 12.3 °F 12.0 °F 74% 30.11 in 10.0 mi SSW 4.6 mph - N/A   Clear
10:53 AM 27.0 °F - 15.1 °F 61% 30.10 in 10.0 mi Calm Calm - N/A   Clear
11:53 AM 32.0 °F - 16.0 °F 52% 30.06 in 10.0 mi Calm Calm - N/A   Clear
12:53 PM 32.0 °F - 17.1 °F 54% 30.04 in 10.0 mi Calm Calm - N/A   Clear
1:53 PM 34.0 °F 28.8 °F 19.9 °F 56% 30.03 in 10.0 mi NE 5.8 mph - N/A   Scattered Clouds
2:53 PM 34.0 °F 27.2 °F 21.9 °F 61% 30.05 in 10.0 mi NE 8.1 mph - N/A   Mostly Cloudy
3:53 PM 32.0 °F 28.7 °F 21.9 °F 66% 30.07 in 10.0 mi North 3.5 mph - N/A   Scattered Clouds
4:53 PM 32.0 °F 28.7 °F 21.9 °F 66% 30.11 in 10.0 mi NE 3.5 mph - N/A   Scattered Clouds
5:53 PM 28.9 °F 25.2 °F 21.0 °F 72% 30.13 in 10.0 mi SE 3.5 mph - N/A   Overcast
6:53 PM 24.1 °F - 18.0 °F 77% 30.15 in 10.0 mi Calm Calm - N/A   Mostly Cloudy
7:53 PM 28.9 °F - 21.0 °F 72% 30.16 in 10.0 mi Calm Calm - N/A   Overcast
8:53 PM 27.0 °F 21.6 °F 21.9 °F 81% 30.17 in 10.0 mi SSW 4.6 mph - N/A   Overcast
9:53 PM 28.0 °F 22.8 °F 21.9 °F 78% 30.15 in 10.0 mi SW 4.6 mph - N/A   Overcast
10:53 PM 28.9 °F 25.2 °F 24.1 °F 82% 30.15 in 10.0 mi SSW 3.5 mph - N/A   Overcast
11:30 PM 28.4 °F - 24.8 °F 86% 30.04 in 10.0 mi Calm Calm - N/A   Overcast
11:53 PM 30.0 °F 26.5 °F 25.0 °F 82% 30.14 in 10.0 mi WSW 3.5 mph - N/A   Overcast